Showing default

SKY MUSTER 2, 41794

Orbit data source: Space-Track

SKY MUSTER 2, 41794 is a payload satellite owned by NBN (AU) in GEO that was launched on Wed, 05 Oct 2016 UTC via an ARIANE 5ECA launch vehicle from the French Guiana (FRGUI). Payloads include a variety of satellites, spacecraft, and rockets equipped with specific instruments for various scientific and technological missions. These include communications satellites like Starlink; space stations such as the ISS; scientific satellites like the Hubble; Earth observation satellites from companies like Planet Labs, Umbra, and HawkEye 360; GPS; miniature CubeSats for education and research; and military/defense satellites.

Not visible in the next 10 days
SKY MUSTER 2 details
Identifier
41794, 2016-060B
Orbit
GEO
Last TLE update3 days ago
Origin
Flag of AUNBN (AU / AUS)
ManufacturerSS/Loral (MDA)
MissionOperational Commercial Communications
Bus & MotorSSL-1300, R-4D?
Mass6,405 kg wet, ~3,500 kg dry
Launch date (UTC)
2016-10-05 (8 years ago)
Launch vehicle
ARIANE 5ECA
Launch site
French Guiana (FRGUI)
Object type
Payload
Rocket body
Debris
Shape & HBRBox + 2 Pan, 26 m
Radar Cross Section48.493 m², Large (>1 m²)

Expand to show TLE details & history

TLE from 3 days ago
0 SKY MUSTER 2
1 41794U 16060B   24358.75119081 -.00000223  00000-0  00000-0 0  9990
2 41794   0.0147 319.0386 0001571 313.7763 235.1872  1.00271622 30106
Epoch: 2024-12-23T18:01Z
Definitive object data (Epoch: 2024-12-23T18:01:42.885Z)
Latitude0.00284°
Longitude144.78628°
Altitude35,789.925 km
Speed3.074 km/s
True Right ascension09h 51m 56s
True Declination0° 00' 10"
Sunlit
Object was in daylight at TLE epoch
Visualization TLE readout
Latitude0.02832°
Longitude67.68466°
Altitude35,792.539 km
Speed3.074 km/s
Apparent Right ascension04h 19m 34s
Apparent Declination-5° 14' 53"
Sunlit
Object is in daylight
Visualization observer readout
Local Sidereal Time12:03:51
Azimuth283.254° WNW
Elevation-23.227°
Doppler factor1
Orbital elements
Apogee altitude35,794.335 km
Perigee altitude35,781.087 km
Semi-major axis42,165.848 km
Eccentricity0.0001571
Inclination0.0147°
RAAN319.0386°
Arg. of periapsis313.7763°
True anomaly235.17242°
Mean anomaly235.1872°
Eccentric anomaly235.17981°
Mean motion0.25067 °/min
BSTARUnknown
Orbital period1436.15 mins
Loading historical data...
41794 neighbors
Authenticating...
Loading maneuver chart data...
Loading historical data...
Loading historical data...
Loading historical data...
Loading historical data...
Loading historical data...
Loading historical data...
Loading historical data...
Other satellites on launch #60 in the year 2016 (2016-10-05 UTC)

SKY MUSTER 2 Visibility forecast

Observer location: undefined°, undefined

SKY MUSTER 2 is not visible in the next 10 days
Span
Click to sort rows by Start time (UTC) header in descending order
Start Az.
Max El. time (UTC)
Max El. Az.
Max El.
End time (UTC)
End Az.
|